Regional Weather Roundup
Issued by NWS

Home | Current Version | Previous Version | Text Only | Print | Product List | Glossary On
Versions: 1 2 3 4 5 6 7 8 9 10 11 12 13 14 15 16 17 18 19 20 21 22 23 24 25 26 27 28
000
ASUS45 KPSR 100910
RWRAZ

ARIZONA HOURLY REGIONAL WEATHER ROUNDUP
NATIONAL WEATHER SERVICE PHOENIX AZ
200 AM MST SAT DEC 10 2016

NOTE: FAIR INDICATES FEW OR NO CLOUDS BELOW 12,000 FEET WITH NO
SIGNIFICANT WEATHER AND/OR OBSTRUCTIONS TO VISIBILITY.

AZZ001>003-036-101000-
NORTHWEST ARIZONA

CITY           SKY/WX    TMP DP  RH WIND       PRES   REMARKS
BULLHEAD CITY  CLEAR     50  27  40 CALM      30.19S
KINGMAN        CLEAR     35  30  82 CALM      30.20S
$$

AZZ004>008-015-016-018-101000-
NORTH CENTRAL ARIZONA

CITY           SKY/WX    TMP DP  RH WIND       PRES   REMARKS
GRAND CANYON   PTCLDY    24  23  96 E5        30.25F WCI  18
WILLIAMS       CLEAR     30  28  93 S10       30.25F WCI  21
PRESCOTT       PTCLDY    29  28  96 S6        30.24S WCI  23
FLAGSTAFF      PTCLDY    26  24  92 W3        30.27R
PAYSON         CLEAR     39  32  75 CALM      30.28R
PAGE           PTCLDY    34  16  47 CALM      30.21F
$$

AZZ009>014-017-101000-
NORTHEAST ARIZONA

CITY           SKY/WX    TMP DP  RH WIND       PRES   REMARKS
WINSLOW        PTCLDY    28  23  81 SE6       30.24R WCI  22
SAINT JOHNS    CLEAR     30  23  75 SE5       30.25R WCI  25
WINDOW ROCK    CLEAR     24  19  81 CALM      30.28R
SHOW LOW       CLEAR     34  25  69 S13       30.26S WCI  25
$$

AZZ023-101000-
GREATER PHOENIX AREA

CITY           SKY/WX    TMP DP  RH WIND       PRES   REMARKS
PHOENIX        PTCLDY    53  40  61 CALM      30.13S
BUCKEYE        CLEAR     46  39  76 N7        30.15F
LUKE AFB       CLEAR     48  40  71 CALM      30.13S
DEER VALLEY    CLEAR     51  37  58 CALM      30.13S
SCOTTSDALE     CLEAR     50  39  66 CALM      30.14F
MESA-GATEWAY   CLEAR     45  34  65 E5        30.14F
$$

AZZ027-028-101000-
SOUTHWEST MARICOPA COUNTY AND PINAL COUNTY

CITY           SKY/WX    TMP DP  RH WIND       PRES   REMARKS
CASA GRANDE    NOT AVBL
GILA BEND      FAIR      50  35  58 SE8       30.13S
$$

AZZ503-504-507>509-101000-
SOUTHEAST ARIZONA

CITY           SKY/WX    TMP DP  RH WIND       PRES   REMARKS
TUCSON         CLEAR     46  31  55 SE7       30.18S
DAVIS-MONTHAN  CLEAR     46  32  57 S5        30.17R
NOGALES        CLEAR     40  28  62 NE3       30.19S
SIERRA VISTA   PTCLDY    43  29  56 E1        30.23S
DOUGLAS        PTCLDY    37  30  75 CALM      30.23R
SAFFORD        CLEAR     44  33  65 SE10      30.23S
$$

AZZ020-021-025-026-031-101000-
SOUTHWEST ARIZONA

CITY           SKY/WX    TMP DP  RH WIND       PRES   REMARKS
YUMA           CLEAR     51  27  39 NW3       30.12S
$$

CAZ031-033-041-043-047-048-061-101000-
SOUTHERN CALIFORNIA

CITY           SKY/WX    TMP DP  RH WIND       PRES   REMARKS
DOWNTOWN L.A.  CLOUDY    57  56  96 E3        30.16F FOG
L.A. AIRPORT   CLOUDY    59  56  89 E8        30.16F FOG
SAN DIEGO      CLOUDY    60  53  77 N3        30.19F
BURBANK        PTCLDY    51  46  83 CALM      30.16F
ONTARIO        PTCLDY    47  45  93 CALM      30.18S FOG
RIVERSIDE      CLEAR     49  46  90 E3        30.18F FOG
PALM SPRINGS   CLEAR     54  43  66 CALM        N/A
EL CENTRO NAS  CLEAR     46  25  43 W7        30.15S
IMPERIAL       CLEAR     47  32  56 W6        30.13S
BLYTHE         CLEAR     51  18  27 W7        30.15F
NEEDLES        CLEAR     49  17  28 W6        30.18S
$$

NVZ020-UTZ003-101000-
SOUTHERN NEVADA-UTAH

CITY           SKY/WX    TMP DP  RH WIND       PRES   REMARKS
LAS VEGAS      PTCLDY    43  14  31 SW5       30.19S
SALT LAKE CITY CLOUDY    32  30  92 NW6       30.01F FOG     WCI  26
$$

NMZ009-TXZ055-101000-
NEW MEXICO-WEST TEXAS

CITY           SKY/WX    TMP DP  RH WIND       PRES   REMARKS
ALBUQUERQUE    CLOUDY    31  24  75 NE3       30.28S
EL PASO        PTCLDY    34  28  79 N7        30.28S WCI  28
$$


........................KEY........................
SKY/WX - SKY CONDITION/WEATHER
TMP    - TEMPERATURE IN FAHRENHEIT
DP     - DEW POINT IN FAHRENHEIT
RH     - RELATIVE HUMIDITY IN PERCENT
WIND   - DIRECTION AND SPEED IN MILES PER HOUR (MPH)
VRB    - VARIABLE WIND DIRECTION
PRES   - MEAN SEA LEVEL PRESSURE IN INCHES OF MERCURY
         F - FALLING PRESSURE   R - RISING PRESSURE
         S - STEADY PRESSURE
VSB    - VISIBILITY IN MILES
HX     - HEAT INDEX IN FAHRENHEIT
WCI    - WIND CHILL INDEX IN FAHRENHEIT
TC     - TEMPERATURE IN CELSIUS WHICH IS ALSO KNOWN AS
         TEMPERATURE IN CENTIGRADE
AFB    - AIR FORCE BASE
         LUKE AFB IS LUKE AIR FORCE BASE
         DAVIS-MONTHAN IS DAVIS-MONTHAN AIR FORCE BASE
NAS    - NAVAL AIR STATION
         EL CENTRO NAS IS EL CENTRO NAVAL AIR STATION
N/A    - NOT AVAILABLE





USA.gov is the U.S. government's official web portal to all federal, state and local government web resources and services.